Weather in Apraksino

Russia / Kostroma Oblast     57°50′34″N   40°59′04″E
В апреле 2022 года жителям России запретили посещать сайт meteo.paraplan.net по решению Генеральной прокуратуры. Аудитория сайта уменьшилась в 10 раз. Владельцы сайта не видят смысла в поддержке погодного сервера в таких условиях. Сайт будет закрыт в октябре.
temp.,
°C
wind,
m/s
gust,
m/s
humid.,
%
clouds,
%
prec.,
mm/h
press.,
hPa
HPBL,
m
25 september, sun
sun2500:00+8se51085100 0.0 1002639
03:00+8ese5108996 0.1 1003530
06:00+8ese5109075 0.1 1004551
09:00+8ese588398 0.1 1004634
12:00+12se586236 0.1 10051348
15:00+12e5760100 0.1 1005841
18:00+10ene367287 0.0 1005183
21:00+10ne3678100 0.1 1005172
26 september, mon
mon2600:00+9nne2589100 0.3 1005148
03:00+8n3593100 0.3 1004162
06:00+7nnw3994100 0.2 1004382
09:00+8wnw4994100 1.8 1004501
12:00+8nw4695100 1.2 1004447
15:00+8ne3694100 2.6 1006425
18:00+7nne2495100 1.4 1007235
21:00+6ne2395100 1.8 1008221
27 september, tue
tue2700:00+7ene1396100 0.3 1009179
03:00+7ene2395100 0.6 1010182
06:00+7ese3696100 0.2 1011249
09:00+8se5894100 0.4 1012557
12:00+10s587699 0.1 1014852
15:00+10se477999 0.2 1015667
18:00+9e498579 0.2 1016356
21:00+8e5109296 0.3 1016364
28 september, wed
wed2800:00+7e5119587 0.0 1016394
03:00+7e5109093 0.0 1016444
06:00+6e61293100 0.0 1016481
09:00+6e71485100 0.0 1015605
12:00+8e81478100 0.0 1014867
15:00+7e81683100 1.4 1012914
18:00+6e91888100 2.5 1012907
21:00+6e91789100 4.3 1011888
29 september, thu
thu2900:00+5e91690100 1.3 1010757
03:00+5e81692100 2.8 1010624
06:00+4e81692100 2.3 1010675
09:00+4e71492100 3.3 1011688
12:00+5e61392100 1.5 1013592
15:00+5ese61193100 1.7 1014499
18:00+5ese51094100 0.3 1017430
21:00+5ese4995100 0.5 1019378